Starlink 1230

operational
NORAD ID: 45189 Int'l Des: 2020-012 Owner: SPXS Country: US Constellation: starlink
LEOCIRCULARSTARLINK_TYPE

About Starlink 1230

Description loading...

Live Position

Loading 3D Globe...

Upcoming Passes

Altitude History

Altitude vs Time

uPlot chart will show altitude changes over time

Two-Line Element Set

1 45189U 20012M 25258.76473579 .00001483 00000-0 11842-3 0 9997
2 45189 53.0542 111.8884 0001344 84.9307 275.1836 15.06404944305694
Epoch: Sep 15, 2025 • Age: 15 hours

Current Status

Altitude 549.8 km
Velocity 7.59 km/s
Sub-Earth Point 38.52°N, 118.17°E
Launch Date Feb 17, 2020
Age 5.5 years
Type internet

Technical Details

Classification Payload
Mass 260.00 kg
Dry Mass 248.00 kg
Total Mass 260.00 kg
Length 0.20 m
Diameter 2.80 m
Span 9.00 m
Shape Box + pan
Manufacturer SPXS
Bus Type Starlink
Phase Status In Orbit
Owner/State SPXS/US

Large Constellations

Loading constellations...